Chillicothe, MO

1:26 PM CST on December 09, 2016 (GMT -0600)
Chillicothe

Weather History for KCDJ - December, 2012

Change the Weather History Date:

Friday, December 21, 2012

  Actual Average (KIRK) Record (KIRK)
Temperature  
Mean Temperature 22 °F -  
Max Temperature 30 °F 33 °F 64 °F (1941)
Min Temperature 14 °F 15 °F -17 °F (1989)
Degree Days  
Heating Degree Days 43    
Moisture  
Dew Point 13 °F    
Average Humidity 71    
Maximum Humidity 92    
Minimum Humidity 47    
Precipitation  
Precipitation 0.00 in - - ()
Sea Level Pressure  
Sea Level Pressure 30.35 in    
Wind  
Wind Speed 5 mph (WNW)    
Max Wind Speed 8 mph    
Max Gust Speed 17 mph    
Averages and records for this station are not official NWS values.
T = Trace of Precipitation, MM = Missing Value Source: NWS Daily Summary

Daily Weather History Graph

Daily Weather History Graph

Search for Another Location

Airport or City:

Trip Planner

Search our weather history database for the weather conditions in past years. The results will help you decide how hot, cold, wet, or windy it might be!

Date:

Astronomy

Dec. 21, 2012 Rise Set
Actual Time 7:32 AM CST 4:53 PM CST
Civil Twilight 7:01 AM CST 5:23 PM CST
Nautical Twilight 6:27 AM CST 5:57 PM CST
Astronomical Twilight 5:54 AM CST 6:30 PM CST
Moon 12:40 PM CST (12/21) 1:20 AM CST (12/21)
Length of Visible Light 10h 21m
Length of Day
9h 20m
Waxing Gibbous, 65% of the Moon is Illuminated
Dec 21
Waxing Gibbous
Dec 28
Full
Jan 4
Last Quarter
Jan 11
New
Jan 18
First Quarter

Hourly Weather History & Observations

Time (CST) Temp. Windchill Dew Point Humidity Pressure Visibility Wind Dir Wind Speed Gust Speed Precip Events Conditions
12:52 AM 19.9 °F 10.1 °F 12.9 °F 74% 30.24 in - WNW 8.1 mph 17.3 mph N/A   Unknown
1:52 AM 19.9 °F 10.1 °F 12.0 °F 71% 30.25 in - NW 8.1 mph - N/A   Unknown
2:52 AM 19.9 °F 13.4 °F 12.0 °F 71% 30.27 in - NW 4.6 mph - N/A   Unknown
3:52 AM 19.0 °F 11.1 °F 10.9 °F 71% 30.29 in - WNW 5.8 mph - N/A   Unknown
4:52 AM 19.0 °F 10.0 °F 10.9 °F 71% 30.31 in - WNW 6.9 mph - N/A   Unknown
5:52 AM 19.0 °F 9.0 °F 10.9 °F 71% 30.32 in - WNW 8.1 mph - N/A   Unknown
6:52 AM 18.0 °F 8.7 °F 9.0 °F 68% 30.34 in - NW 6.9 mph - N/A   Unknown
7:52 AM 19.0 °F 11.1 °F 8.1 °F 62% 30.35 in - NNW 5.8 mph - N/A   Unknown
8:52 AM 19.0 °F 11.1 °F 9.0 °F 65% 30.38 in - West 5.8 mph - N/A   Unknown
9:52 AM 21.9 °F 14.5 °F 12.0 °F 66% 30.41 in - West 5.8 mph - N/A   Unknown
10:52 AM 25.0 °F 18.1 °F 10.9 °F 55% 30.42 in - NW 5.8 mph - N/A   Unknown
11:52 AM 28.9 °F 25.2 °F 10.9 °F 47% 30.40 in - Variable 3.5 mph - N/A   Unknown
12:52 PM 27.0 °F 20.5 °F 14.0 °F 58% 30.39 in - SW 5.8 mph - N/A   Unknown
1:52 PM 30.0 °F - 15.1 °F 54% 30.36 in - Calm Calm - N/A   Unknown
2:52 PM 30.9 °F - 17.1 °F 57% 30.36 in - Calm Calm - N/A   Unknown
3:52 PM 30.0 °F 26.5 °F 14.0 °F 51% 30.37 in - SW 3.5 mph - N/A   Unknown
4:52 PM 27.0 °F - 16.0 °F 63% 30.38 in - Calm Calm - N/A   Unknown
5:52 PM 21.0 °F - 17.1 °F 85% 30.38 in - Calm Calm - N/A   Unknown
6:52 PM 17.1 °F - 14.0 °F 88% 30.39 in - Calm Calm - N/A   Unknown
7:52 PM 17.1 °F - 15.1 °F 92% 30.38 in - Calm Calm - N/A   Unknown
8:52 PM 17.1 °F - 15.1 °F 92% 30.38 in - Calm Calm - N/A   Unknown
9:52 PM 14.0 °F - 12.0 °F 92% 30.37 in - Calm Calm - N/A   Unknown
10:52 PM 15.1 °F - 10.9 °F 84% 30.36 in - Calm Calm - N/A   Unknown
11:52 PM 14.0 °F - 12.0 °F 92% 30.34 in - Calm Calm - N/A   Unknown